Tracy, MN

10:23 AM CST on December 06, 2016 (GMT -0600)
Tracy

Weather History for KTKC - February, 2014

Change the Weather History Date:

Monday, February 3, 2014

  Actual Average (KMML) Record (KMML)
Temperature  
Mean Temperature 10 °F -  
Max Temperature 15 °F 21 °F 50 °F (1962)
Min Temperature 4 °F 3 °F -24 °F (1982)
Degree Days  
Heating Degree Days 56    
Moisture  
Dew Point 5 °F    
Average Humidity 76    
Maximum Humidity 83    
Minimum Humidity 68    
Precipitation  
Precipitation 0.00 in - - ()
Sea Level Pressure  
Sea Level Pressure 30.21 in    
Wind  
Wind Speed 8 mph (NW)    
Max Wind Speed 17 mph    
Max Gust Speed -    
Visibility 10 miles    
Events      
Averages and records for this station are not official NWS values.
T = Trace of Precipitation, MM = Missing Value Source: NWS Daily Summary

Daily Weather History Graph

Daily Weather History Graph

Search for Another Location

Airport or City:

Trip Planner

Search our weather history database for the weather conditions in past years. The results will help you decide how hot, cold, wet, or windy it might be!

Date:

Astronomy

Feb. 03, 2014 Rise Set
Actual Time 7:38 AM CST 5:35 PM CST
Civil Twilight 7:07 AM CST 6:05 PM CST
Nautical Twilight 6:32 AM CST 6:40 PM CST
Astronomical Twilight 5:58 AM CST 7:14 PM CST
Moon 9:29 AM CST (2/3) 10:39 PM CST (2/3)
Length of Visible Light 10h 58m
Length of Day
9h 57m
Waxing Crescent, 20% of the Moon is Illuminated
Feb 3
Waxing Crescent
Feb 6
First Quarter
Feb 14
Full
Feb 22
Last Quarter
Mar 1
New

Hourly Weather History & Observations

Time (CST) Temp. Windchill Dew Point Humidity Pressure Visibility Wind Dir Wind Speed Gust Speed Precip Events Conditions
12:17 AM 11.3 °F -5.5 °F 4.8 °F 75% 30.10 in 10.0 mi SSW 16.1 mph - N/A   Clear
12:37 AM 12.2 °F -4.8 °F 5.9 °F 76% 30.10 in 10.0 mi SSW 17.3 mph - N/A   Clear
12:57 AM 12.2 °F -3.7 °F 5.7 °F 75% 30.09 in 10.0 mi SSW 15.0 mph - N/A   Clear
1:18 AM 12.2 °F -4.3 °F 5.9 °F 76% 30.10 in 10.0 mi SW 16.1 mph - N/A   Clear
1:38 AM 11.7 °F -3.2 °F 5.7 °F 77% 30.09 in 10.0 mi SW 12.7 mph - N/A   Clear
1:58 AM 11.8 °F -4.8 °F 5.9 °F 77% 30.10 in 10.0 mi SW 16.1 mph - N/A   Clear
2:17 AM 11.3 °F -2.2 °F 5.5 °F 78% 30.10 in 10.0 mi SW 10.4 mph - N/A   Clear
2:38 AM 10.9 °F -2.6 °F 5.0 °F 77% 30.10 in 10.0 mi SW 10.4 mph - N/A   Clear
2:57 AM 12.2 °F -1.8 °F 5.9 °F 76% 30.10 in 10.0 mi WSW 11.5 mph - N/A   Clear
3:17 AM 11.5 °F -1.9 °F 5.2 °F 76% 30.11 in 10.0 mi SW 10.4 mph - N/A   Clear
3:37 AM 12.4 °F 2.0 °F 6.3 °F 76% 30.11 in 10.0 mi West 6.9 mph - N/A   Clear
3:58 AM 12.0 °F 5.9 °F 5.5 °F 75% 30.12 in 10.0 mi WSW 3.5 mph - N/A   Clear
4:18 AM 10.4 °F 0.8 °F 4.6 °F 78% 30.13 in 10.0 mi West 5.8 mph - N/A   Clear
4:37 AM 10.8 °F 2.7 °F 4.5 °F 76% 30.13 in 10.0 mi West 4.6 mph - N/A   Clear
4:57 AM 10.0 °F - 4.1 °F 77% 30.14 in 10.0 mi Calm Calm - N/A   Clear
5:17 AM 8.6 °F - 2.7 °F 77% 30.14 in 10.0 mi Calm Calm - N/A   Clear
5:37 AM 9.5 °F - 3.7 °F 77% 30.15 in 10.0 mi Calm Calm - N/A   Clear
5:57 AM 9.1 °F - 3.6 °F 78% 30.15 in 10.0 mi Calm Calm - N/A   Clear
6:17 AM 8.6 °F - 3.0 °F 78% 30.15 in 10.0 mi Calm Calm - N/A   Clear
6:38 AM 7.9 °F - 2.3 °F 78% 30.15 in 10.0 mi Calm Calm - N/A   Clear
6:58 AM 7.0 °F - 1.9 °F 80% 30.15 in 10.0 mi Calm Calm - N/A   Clear
7:18 AM 8.1 °F - 2.5 °F 78% 30.16 in 10.0 mi Calm Calm - N/A   Clear
7:37 AM 7.3 °F - 2.3 °F 80% 30.17 in 10.0 mi Calm Calm - N/A   Clear
7:58 AM 8.1 °F - 2.5 °F 78% 30.18 in 10.0 mi Calm Calm - N/A   Clear
8:17 AM 7.7 °F - 2.1 °F 78% 30.19 in 10.0 mi Calm Calm - N/A   Clear
8:38 AM 8.1 °F - 2.3 °F 77% 30.20 in 10.0 mi Calm Calm - N/A   Clear
8:57 AM 7.9 °F - 1.9 °F 77% 30.20 in 10.0 mi Calm Calm - N/A   Clear
9:18 AM 9.3 °F -3.8 °F 3.2 °F 76% 30.20 in 10.0 mi NW 9.2 mph - N/A   Clear
9:38 AM 9.9 °F -3.1 °F 3.9 °F 77% 30.20 in 10.0 mi NNW 9.2 mph - N/A   Clear
9:58 AM 10.4 °F -3.3 °F 4.3 °F 76% 30.21 in 10.0 mi NNW 10.4 mph - N/A   Clear
10:17 AM 10.8 °F -2.0 °F 4.3 °F 75% 30.22 in 10.0 mi NNW 9.2 mph - N/A   Clear
10:37 AM 11.3 °F -1.3 °F 5.0 °F 76% 30.23 in 10.0 mi NNW 9.2 mph - N/A   Clear
10:58 AM 11.3 °F -2.2 °F 5.4 °F 77% 30.23 in 10.0 mi NNW 10.4 mph - N/A   Clear
11:18 AM 11.7 °F 0.0 °F 5.5 °F 76% 30.23 in 10.0 mi NNW 8.1 mph - N/A   Clear
11:37 AM 12.7 °F -0.4 °F 6.4 °F 76% 30.23 in 10.0 mi NW 10.4 mph - N/A   Clear
11:58 AM 13.1 °F -1.4 °F 6.8 °F 76% 30.22 in 10.0 mi NNW 12.7 mph - N/A   Clear
12:18 PM 14.0 °F 2.9 °F 7.3 °F 75% 30.22 in 10.0 mi NNW 8.1 mph - N/A   Clear
12:38 PM 14.9 °F 1.6 °F 7.7 °F 73% 30.22 in 10.0 mi North 11.5 mph - N/A   Clear
12:58 PM 14.9 °F 2.3 °F 7.7 °F 73% 30.21 in 10.0 mi North 10.4 mph - N/A   Clear
1:18 PM 14.5 °F 1.1 °F 7.5 °F 74% 30.21 in 10.0 mi North 11.5 mph - N/A   Clear
1:37 PM 14.9 °F 4.0 °F 7.7 °F 73% 30.22 in 10.0 mi North 8.1 mph - N/A   Clear
1:58 PM 14.9 °F 6.1 °F 7.2 °F 71% 30.22 in 10.0 mi North 5.8 mph - N/A   Scattered Clouds
2:17 PM 14.9 °F 7.5 °F 7.2 °F 71% 30.22 in 10.0 mi North 4.6 mph - N/A   Clear
2:37 PM 14.7 °F - 6.8 °F 71% 30.22 in 10.0 mi Calm Calm - N/A   Clear
2:57 PM 15.4 °F 3.0 °F 7.3 °F 70% 30.22 in 10.0 mi North 10.4 mph - N/A   Clear
3:18 PM 14.9 °F 2.3 °F 6.6 °F 70% 30.22 in 10.0 mi NNE 10.4 mph - N/A   Scattered Clouds
3:37 PM 15.4 °F 3.0 °F 7.2 °F 70% 30.22 in 10.0 mi NNE 10.4 mph - N/A   Scattered Clouds
3:58 PM 14.7 °F 2.9 °F 6.3 °F 69% 30.23 in 10.0 mi NNE 9.2 mph - N/A   Clear
4:18 PM 14.7 °F 4.8 °F 6.3 °F 69% 30.24 in 10.0 mi NNE 6.9 mph - N/A   Scattered Clouds
4:38 PM 14.5 °F 3.6 °F 6.3 °F 70% 30.24 in 10.0 mi NE 8.1 mph - N/A   Mostly Cloudy
4:57 PM 14.4 °F 4.3 °F 5.5 °F 68% 30.23 in 10.0 mi NNE 6.9 mph - N/A   Overcast
5:17 PM 13.8 °F - 5.5 °F 70% 30.24 in 10.0 mi Calm Calm - N/A   Overcast
5:37 PM 12.9 °F 3.8 °F 5.7 °F 73% 30.24 in 10.0 mi NNE 5.8 mph - N/A   Overcast
5:57 PM 12.0 °F - 5.0 °F 73% 30.25 in 10.0 mi Calm Calm - N/A   Scattered Clouds
6:18 PM 9.9 °F - 4.1 °F 78% 30.25 in 10.0 mi Calm Calm - N/A   Clear
6:38 PM 9.7 °F - 4.5 °F 79% 30.26 in 10.0 mi Calm Calm - N/A   Clear
6:58 PM 9.7 °F - 4.6 °F 80% 30.26 in 10.0 mi Calm Calm - N/A   Clear
7:18 PM 8.4 °F - 3.7 °F 81% 30.26 in 10.0 mi Calm Calm - N/A   Clear
7:37 PM 8.4 °F - 3.4 °F 80% 30.27 in 10.0 mi Calm Calm - N/A   Clear
7:58 PM 7.7 °F - 3.0 °F 81% 30.27 in 10.0 mi Calm Calm - N/A   Clear
8:17 PM 8.2 °F - 3.7 °F 82% 30.28 in 10.0 mi Calm Calm - N/A   Scattered Clouds
8:38 PM 7.9 °F - 3.6 °F 83% 30.29 in 10.0 mi Calm Calm - N/A   Mostly Cloudy
8:57 PM 9.1 °F - 3.9 °F 79% 30.30 in 10.0 mi Calm Calm - N/A   Mostly Cloudy
9:17 PM 8.4 °F - 3.0 °F 79% 30.30 in 10.0 mi Calm Calm - N/A   Scattered Clouds
9:37 PM 8.4 °F - 3.4 °F 80% 30.31 in 10.0 mi Calm Calm - N/A   Clear
9:57 PM 7.3 °F - 1.4 °F 77% 30.30 in 10.0 mi Calm Calm - N/A   Clear
10:18 PM 8.1 °F - 2.7 °F 79% 30.31 in 10.0 mi Calm Calm - N/A   Clear
10:38 PM 6.8 °F - 1.4 °F 79% 30.31 in 10.0 mi Calm Calm - N/A   Clear
10:57 PM 7.3 °F - 2.1 °F 79% 30.31 in 10.0 mi Calm Calm - N/A   Clear
11:17 PM 6.6 °F - 1.4 °F 79% 30.33 in 10.0 mi Calm Calm - N/A   Clear
11:38 PM 4.5 °F - -0.2 °F 81% 30.32 in 10.0 mi Calm Calm - N/A   Mostly Cloudy
11:57 PM 7.5 °F - 2.1 °F 79% 30.33 in 10.0 mi Calm Calm - N/A   Overcast